AO-07 1 07530U 74089B 21224.44274622 -.00000044 00000-0 87532-5 0 9994 2 07530 101.8582 198.8956 0011828 275.5565 199.7745 12.53649754138744 UO-11 1 14781U 84021B 21224.45231497 .00000082 00000-0 16147-4 0 9995 2 14781 97.5947 221.5413 0006916 254.9970 105.0479 14.83311342994233 LO-19 1 20442U 90005G 21224.55572771 -.00000009 00000-0 13446-4 0 9998 2 20442 98.7450 180.5449 0011823 2.0512 358.0718 14.32993654648863 HUBBLE 1 20580U 90037B 21224.25894861 .00000497 00000-0 19035-4 0 9990 2 20580 28.4707 55.8144 0002564 306.5886 218.4723 15.09702284519454 MET-2/21 1 22782U 93055A 21224.48522610 .00000015 00000-0 -12528-6 0 9993 2 22782 82.5465 259.4378 0023390 132.2847 336.5972 13.83836612411276 AO-27 1 22825U 93061C 21224.48941470 -.00000023 00000-0 92483-5 0 9993 2 22825 98.9162 243.4755 0007618 226.5839 133.4709 14.30121327453994 IO-26 1 22826U 93061D 21224.30664804 -.00000015 00000-0 12257-4 0 9999 2 22826 98.9104 243.1916 0008320 213.5853 146.4802 14.30461239454213 FO-29 1 24278U 96046B 21224.49862458 -.00000029 00000-0 70138-5 0 9991 2 24278 98.5635 285.0361 0350388 4.6287 355.7956 13.53104795234074 NOAA-15 1 25338U 98030A 21224.56769992 .00000056 00000-0 41793-4 0 9994 2 25338 98.6791 252.5815 0011502 115.2782 244.9591 14.26051802208997 GO-32 1 25397U 98043D 21224.55849916 -.00000010 00000-0 15126-4 0 9999 2 25397 98.7733 169.9655 0000339 338.4383 21.6781 14.23713072199478 ISS 1 25544U 98067A 21224.88069557 .00000758 00000-0 21964-4 0 9995 2 25544 51.6429 62.3610 0001263 301.3040 147.5588 15.48893124297382 NO-44 1 26931U 01043C 21224.45564305 -.00000010 00000-0 27966-4 0 9998 2 26931 67.0515 135.9083 0005701 263.8395 96.2057 14.30627966 37200 SO-50 1 27607U 02058C 21224.54549969 .00000025 00000-0 24147-4 0 9998 2 27607 64.5551 166.8166 0047556 3.3791 356.7623 14.75774625 2781 CO-55 1 27844U 03031E 21224.47283315 .00000038 00000-0 36604-4 0 9990 2 27844 98.6803 231.8348 0008644 278.0907 81.9290 14.22325108939946 CO-57 1 27848U 03031J 21224.27160748 .00000023 00000-0 30072-4 0 9993 2 27848 98.6858 232.1977 0008622 294.0036 66.0238 14.21900338939746 RS-22 1 27939U 03042A 21224.58461007 .00000061 00000-0 19648-4 0 9990 2 27939 98.1491 1.3098 0014241 102.2673 258.0127 14.67009488955751 NOAA-18 1 28654U 05018A 21224.61397467 .00000094 00000-0 75183-4 0 9994 2 28654 98.9905 289.6920 0015265 122.1673 238.0981 14.12629291836469 CO-58 1 28895U 05043F 21224.33626598 .00000119 00000-0 31747-4 0 9994 2 28895 98.0662 356.3763 0017479 38.5581 321.6866 14.63942684842188 Falconsat-3 1 30776U 07006E 21224.33761843 .00003617 00000-0 85839-4 0 9996 2 30776 35.4340 100.9261 0001734 20.3950 339.6848 15.41311130801737 CO-65 1 32785U 08021C 21224.45432872 .00000201 00000-0 27073-4 0 9998 2 32785 97.6151 201.1371 0013071 170.6698 189.4765 14.88769191720508 AAUSAT2 1 32788U 08021F 21224.48684773 .00000205 00000-0 23320-4 0 9998 2 32788 97.5074 216.8034 0013372 82.4838 277.7902 14.95685079722239 DO-64 1 32789U 08021G 21224.50958296 .00001725 00000-0 11214-3 0 9992 2 32789 97.3731 257.7136 0010220 315.7881 44.2531 15.09237698725283 CO-66 1 32791U 08021J 21224.45001276 .00000369 00000-0 42205-4 0 9994 2 32791 97.5745 206.9882 0014252 134.7721 225.4660 14.91474032721128 RS-30 1 32953U 08025A 21224.48554814 .00000021 00000-0 80971-4 0 9999 2 32953 82.5053 16.0766 0019141 212.7530 147.2371 12.43103710599942 PRISM 1 33493U 09002B 21224.44799925 .00001113 00000-0 10016-3 0 9990 2 33493 98.1923 189.7051 0016586 101.0669 259.2418 14.97770009682704 NOAA-19 1 33591U 09005A 21224.58247974 .00000036 00000-0 44825-4 0 9998 2 33591 99.1815 246.6725 0013488 339.1457 20.9162 14.12488807644843 SRMSAT 1 37841U 11058D 21224.57863898 .00000302 00000-0 20528-4 0 9999 2 37841 19.9731 321.8571 0011733 190.0136 196.3217 14.10700650507574 HRBE 1 37855U 11061F 21224.42674750 .00001117 00000-0 60966-4 0 9994 2 37855 101.7134 176.8690 0165587 264.1539 94.0778 15.07999468534618 RS-40 1 38735U 12041C 21224.47260438 .00000015 00000-0 41021-4 0 9997 2 38735 82.4759 98.1705 0017107 327.7379 32.2659 12.42583337410142 ZACUBE-1 1 39417U 13066B 21224.43961520 .00000268 00000-0 39769-4 0 9995 2 39417 97.5965 205.8771 0058012 339.1713 20.7137 14.81564178417366 GOMX-1 1 39430U 13066Q 21224.46990401 .00000208 00000-0 46985-4 0 9995 2 39430 97.8126 144.3215 0149370 298.9135 59.7134 14.59653610411213 LO-74 1 39440U 13066AA 21224.43845660 .00000256 00000-0 42099-4 0 9994 2 39440 97.6803 191.0337 0081127 54.5185 306.3561 14.76284940414688 AO-73 1 39444U 13066AE 21224.45678431 .00000330 00000-0 46403-4 0 9996 2 39444 97.5869 208.2675 0056812 329.0819 30.7054 14.82482444415734 SPROUT 1 39770U 14029E 21224.54058262 .00000860 00000-0 98402-4 0 9996 2 39770 97.9198 335.7829 0009679 31.0429 329.1356 14.88561408391689 DTUSAT-2 1 40030U 14033W 21224.53337791 .00000280 00000-0 35686-4 0 9999 2 40030 97.9151 151.7686 0011827 358.1663 1.9509 14.89042917387665 EO-80 1 40032U 14033Y 21224.56536222 .00000269 00000-0 34616-4 0 9993 2 40032 97.9156 151.8080 0011770 358.9270 1.1919 14.89001441387642 HODOYOSHI-1 1 40299U 14070B 21224.48313367 .00000870 00000-0 37776-4 0 9991 2 40299 97.2837 296.5435 0013794 144.4404 335.6197 15.24845683375950 FIREBIRD FU3 1 40377U 15003B 21224.54094477 .00001707 00000-0 64790-4 0 9996 2 40377 99.1070 17.5606 0116160 345.3839 14.4043 15.22851440361327 FIREBIRD FU4 1 40378U 15003C 21224.38402609 .00001587 00000-0 60418-4 0 9998 2 40378 99.1078 17.5206 0116203 345.7105 14.0848 15.22903981361305 GRIFEX 1 40379U 15003D 21224.35707366 .00001296 00000-0 55456-4 0 9997 2 40379 99.1030 6.3175 0127756 19.5718 341.0351 15.18394582360662 NO-84 1 40654U 15025D 21223.38348094 .00026609 00000-0 16128-3 0 1098 2 40654 54.9772 141.4839 0065135 208.5833 151.1636 15.74400310 15693 XW-2A 1 40903U 15049E 21224.44475147 .00003087 00000-0 65551-4 0 9996 2 40903 97.2317 278.7568 0012683 162.8543 322.5582 15.45730004331440 XW-2C 1 40906U 15049H 21224.51511263 .00000800 00000-0 44008-4 0 9991 2 40906 97.4860 226.1717 0014580 359.8704 156.4654 15.16866426326068 XW-2D 1 40907U 15049J 21224.49626313 .00000983 00000-0 52786-4 0 9996 2 40907 97.4858 225.9679 0013734 356.9573 154.1054 15.17204413326097 LILACSAT-2 1 40908U 15049K 21224.51609505 .00000528 00000-0 32182-4 0 9997 2 40908 97.5054 223.7503 0015947 12.2561 108.8941 15.14514056325719 XW-2E 1 40909U 15049L 21224.48974882 .00001609 00000-0 78364-4 0 9990 2 40909 97.4670 230.0432 0012464 343.1552 168.9303 15.19747189326442 XW-2F 1 40910U 15049M 21224.51322144 .00001490 00000-0 73842-4 0 9998 2 40910 97.4728 229.1484 0013644 342.0817 179.4390 15.19246599326236 XW-2B 1 40911U 15049N 21224.50219127 .00000918 00000-0 49654-4 0 9992 2 40911 97.4851 226.6472 0013657 357.9678 153.3108 15.17119246325982 DCBB 1 40912U 15049P 21224.48227047 .00001813 00000-0 82810-4 0 9996 2 40912 97.4444 233.4977 0012876 311.5584 209.7103 15.21815314326718 TW-1A 1 40928U 15051D 21224.52504214 .00004835 00000-0 99010-4 0 9992 2 40928 97.0737 248.0937 0011347 89.1389 65.7775 15.46492749330357 IO-86 1 40931U 15052B 21224.46657561 .00000661 00000-0 29145-5 0 9990 2 40931 5.9988 212.9080 0012688 115.8793 244.2687 14.76684050317598 ATHENOXAT-1 1 41168U 15077C 21224.60812576 .00002586 00000-0 95118-4 0 9995 2 41168 14.9865 208.0823 0010840 237.7601 270.6319 15.15928441313316 ChubuSat-2 1 41338U 16012B 21224.27782265 .00000376 00000-0 22322-4 0 9990 2 41338 31.0017 190.9126 0013593 326.5423 33.4353 15.00570798300991 ChubuSat-3 1 41339U 16012C 21224.22892918 .00000352 00000-0 20387-4 0 9996 2 41339 31.0103 188.3955 0013538 334.1678 25.8271 15.00715259300981 Horyu-4 1 41340U 16012D 21224.17856240 .00000599 00000-0 38053-4 0 9992 2 41340 31.0038 171.5905 0013608 6.0002 354.0795 15.01959900301177 e-st@r-II 1 41459U 16025D 21224.60900960 .00001506 00000-0 76978-4 0 9991 2 41459 98.1482 4.1897 0158426 233.0295 125.6350 15.08308625290883 AAUSAT4 1 41460U 16025E 21224.38918196 .00004218 00000-0 19687-3 0 9994 2 41460 98.1492 8.1219 0145413 216.5026 142.6226 15.11520590291162 LO-87 1 41557U 16033B 21224.53312340 .00001891 00000-0 68180-4 0 9993 2 41557 97.3953 318.1691 0013818 41.8124 84.8609 15.29717388290108 NuSat2 1 41558U 16033C 21224.45804199 .00001959 00000-0 66205-4 0 9994 2 41558 97.4072 322.1753 0012568 36.5438 93.7663 15.31812862290291 Lapan A3 1 41603U 16040E 21224.42100772 .00000161 00000-0 10506-4 0 9993 2 41603 97.2515 269.2158 0013759 159.5934 325.5741 15.20072243285085 Pratham 1 41783U 16059A 21224.54187770 .00000049 00000-0 18437-4 0 9994 2 41783 97.9601 272.7134 0034840 70.1159 290.3793 14.63157200260454 TY-1 1 41844U 16066D 21224.53920068 .00001222 00000-0 50371-4 0 9991 2 41844 97.3981 234.1781 0012929 304.0994 213.3115 15.25953521264453 CAS-2T 1 41847U 16066G 21224.41119920 .00000090 00000-0 23127-4 0 9999 2 41847 98.5972 283.7586 0366019 53.4835 309.9478 14.38223774249925 EO-88 1 42017U 17008BX 21224.47437883 .00001908 00000-0 71467-4 0 9992 2 42017 97.3120 291.0723 0004162 267.6539 92.4225 15.28494864249812 CAS-4B 1 42759U 17034B 21224.45688145 .00000192 00000-0 24793-4 0 9995 2 42759 43.0170 233.1748 0007413 161.3644 351.3338 15.10303465229616 CAS-4A 1 42761U 17034D 21224.44408104 .00000265 00000-0 29140-4 0 9994 2 42761 43.0163 232.2575 0007905 163.2221 346.6255 15.10391708229619 NIUSat 1 42766U 17036B 21224.49645772 .00001190 00000-0 53493-4 0 9996 2 42766 97.2461 268.5174 0014300 345.0953 14.9861 15.22930002229743 Aalto 1 1 42775U 17036L 21224.07760627 .00000966 00000-0 44113-4 0 9996 2 42775 97.2429 268.3341 0012870 346.4569 13.6321 15.22840941229669 URSA MAIOR 1 42776U 17036M 21224.13583961 .00001066 00000-0 47971-4 0 9995 2 42776 97.2443 268.8889 0012613 345.6803 14.4075 15.23121146229693 Max Valier Sat 1 42778U 17036P 21224.58432771 .00001178 00000-0 51705-4 0 9992 2 42778 97.2509 271.3477 0011132 347.2720 12.8235 15.23803696229834 Pegasus 1 42784U 17036V 21224.35834520 .00001493 00000-0 63171-4 0 9992 2 42784 97.2462 271.6350 0010861 351.3032 8.8016 15.24666283229878 NUDATSat 1 42787U 17036Y 21224.61917389 .00002883 00000-0 11226-3 0 9996 2 42787 97.2506 274.4856 0010432 344.5824 15.5094 15.26737446229906 SUCHAI 1 1 42788U 17036Z 21224.58989571 .00001777 00000-0 72852-4 0 9999 2 42788 97.2472 272.9232 0010173 347.4891 12.6093 15.25506251230049 SKCUBE 1 42789U 17036AA 21224.43233693 .00001655 00000-0 68610-4 0 9993 2 42789 97.2467 272.4553 0010170 349.0281 11.0734 15.25220471229920 VZLUSAT 1 1 42790U 17036AB 21224.41759749 .00002157 00000-0 84760-4 0 9990 2 42790 97.2494 274.2777 0009278 344.3307 15.7644 15.26702574230028 VENTA 1 1 42791U 17036AC 21224.41569082 .00001527 00000-0 63650-4 0 9995 2 42791 97.2463 272.4463 0009915 349.9487 10.1552 15.25148624229917 Robusta 1B 1 42792U 17036AD 21224.58906016 .00001696 00000-0 69713-4 0 9999 2 42792 97.2464 273.0092 0009676 348.7579 11.3442 15.25472363229985 D-SAT 1 42794U 17036AF 21224.50781554 .00000456 00000-0 44128-4 0 9997 2 42794 97.4601 241.4167 0126427 39.2413 321.7887 14.91636394225410 TechnoSat 1 42829U 17042E 21224.61451363 .00000024 00000-0 76623-5 0 9994 2 42829 97.4618 91.1468 0013222 325.5112 34.5248 14.91320145222057 QIKCOM-1 1 42983U 98067NF 21224.50069163 .00007467 00000-0 71394-4 0 9999 2 42983 51.6373 334.3872 0002475 199.5908 160.4993 15.67884695216192 AO-91 1 43017U 17073E 21224.46481350 .00000599 00000-0 50728-4 0 9994 2 43017 97.7008 126.2218 0255920 117.4572 245.2913 14.79634720201406 EcAMSat 1 43019U 98067NG 21224.48468167 .00030104 00000-0 13836-3 0 9994 2 43019 51.6373 293.7257 0000669 325.4497 34.6462 15.83359725299052 PICSAT 1 43132U 18004X 21224.45149361 .00001473 00000-0 59913-4 0 9996 2 43132 97.4069 298.4930 0009355 21.5699 338.5932 15.26102216199221 AO-92 1 43137U 18004AC 21224.42086852 .00001345 00000-0 55971-4 0 9991 2 43137 97.4041 297.8798 0009238 24.8185 335.3496 15.25468820199198 TianYi 2 1 43155U 18008A 21224.50003023 .00001161 00000-0 69889-4 0 9992 2 43155 97.3992 287.7777 0018474 131.5482 345.0548 15.12589989196543 Zhou Enlai 1 43156U 18008B 21224.51472561 .00001574 00000-0 94596-4 0 9992 2 43156 97.4041 287.6288 0015735 130.6652 343.1870 15.12209532196485 TianYi 6 1 43158U 18008D 21224.46000880 .00000735 00000-0 46884-4 0 9994 2 43158 97.3967 286.0683 0014699 129.2572 243.9208 15.11613880196406 S-Net D 1 43186U 18014G 21224.29961312 .00000607 00000-0 57556-4 0 9995 2 43186 97.6731 130.8733 0009088 252.5687 107.4542 14.97110933192656 S-Net B 1 43187U 18014H 21224.50006261 .00000567 00000-0 54110-4 0 9991 2 43187 97.6728 131.0345 0009097 251.7125 108.3107 14.97110538192684 S-Net A 1 43188U 18014J 21224.50015647 .00000570 00000-0 54419-4 0 9996 2 43188 97.6732 131.0818 0009088 251.8626 108.1607 14.97109401192682 S-Net C 1 43189U 18014K 21224.56748075 .00000521 00000-0 50111-4 0 9992 2 43189 97.6727 131.0928 0009096 251.5392 108.4841 14.97109375191249 FMN 1 1 43192U 18015A 21224.51822837 .00003284 00000-0 12088-3 0 9990 2 43192 97.4958 0.1998 0015293 48.8311 15.5912 15.28485949196155 Shaonian Xing 1 43199U 18015H 21224.49792155 .00002293 00000-0 86814-4 0 9991 2 43199 97.4745 357.1258 0016851 58.0021 6.6587 15.27846974196205 SurfSat 1 43614U 18070B 21224.53353868 .00004382 00000-0 10016-3 0 9994 2 43614 93.0361 329.3737 0015720 138.3594 221.8862 15.42745016163312 CP-7 DAVE 1 43615U 18070C 21224.49690843 .00004043 00000-0 93418-4 0 9999 2 43615 93.0366 329.3071 0015889 138.6843 221.5618 15.42429400163294 ELFIN-B 1 43616U 18070D 21224.53724665 .00006422 00000-0 13277-3 0 9992 2 43616 93.0317 329.5859 0015709 136.2089 224.0418 15.45695389163430 ELFIN-A 1 43617U 18070E 21224.54361371 .00006856 00000-0 13919-3 0 9999 2 43617 93.0366 330.4899 0015097 133.0393 227.2132 15.46232004163455 CubeBel-1 1 43666U 18083E 21224.42561079 .00001434 00000-0 70566-4 0 9990 2 43666 97.4528 252.0862 0013794 340.7251 135.0901 15.19552008154514 Changshagaoxin 1 43669U 18083H 21224.46480784 .00001527 00000-0 77704-4 0 9994 2 43669 97.4437 249.0267 0009876 338.6193 157.5141 15.18300566154387 Ten-Koh 1 43677U 18084G 21224.57888893 .00000119 00000-0 18047-4 0 9990 2 43677 97.9267 347.7818 0015400 205.0648 154.9824 14.90499945151668 PO-101 1 43678U 18084H 21224.59609390 .00000466 00000-0 51993-4 0 9998 2 43678 97.9312 350.1863 0008915 219.3189 140.7372 14.91777551151809 IRVINE 01 1 43693U 18088D 21224.56011741 .00003595 00000-0 13740-3 0 9996 2 43693 85.0366 157.6624 0016364 167.4512 192.7143 15.26103126152992 QO-100 1 43700U 18090A 21224.26296090 .00000141 00000-0 00000-0 0 9993 2 43700 0.0146 122.7907 0002003 48.8076 269.8026 1.00272179 9925 Reaktor Hello World 1 43743U 18096AA 21224.47222900 .00001793 00000-0 65921-4 0 9999 2 43743 97.3838 301.5596 0018693 79.5678 280.7668 15.29060302150695 MinXSS-2 1 43758U 18099A 21224.48337804 .00000862 00000-0 81586-4 0 9990 2 43758 97.6641 294.5081 0014511 215.7526 144.2725 14.96129313146893 AO-95 1 43770U 18099N 21224.45795172 .00000387 00000-0 40195-4 0 9990 2 43770 97.6616 293.4011 0013481 226.0130 133.9980 14.95381727146820 RANGE-B 1 43772U 18099Q 21224.40786852 .00000919 00000-0 87578-4 0 9999 2 43772 97.6707 294.4351 0013326 211.6224 148.4198 14.95699324146820 RANGE-A 1 43773U 18099R 21224.53471193 .00000636 00000-0 62864-4 0 9990 2 43773 97.6551 292.7425 0012723 211.3283 148.7181 14.95259588146822 MOVE-II 1 43780U 18099Y 21224.46298710 .00000717 00000-0 68953-4 0 9997 2 43780 97.6636 294.0066 0012522 221.5105 138.5166 14.96021118146842 SNUSat 2 1 43782U 18099AA 21224.14722741 .00000724 00000-0 70233-4 0 9992 2 43782 97.6620 293.4579 0011863 210.8372 149.2154 14.95621495146796 SnugLite 1 43784U 18099AC 21224.41841945 .00000592 00000-0 58116-4 0 9991 2 43784 97.6585 293.4352 0013958 219.1242 140.8970 14.95753812146851 ITASat 1 1 43786U 18099AE 21224.43322428 -.00000071 00000-0 -12141-5 0 9998 2 43786 97.6641 294.0942 0014108 219.1083 140.9120 14.95671537146850 EAGLET 1 1 43790U 18099AJ 21224.45466691 .00000101 00000-0 14090-4 0 9992 2 43790 97.6626 294.5495 0012537 222.4797 137.5455 14.96016927146589 ESEO 1 43792U 18099AL 21224.44854823 -.00000234 00000-0 -15820-4 0 9992 2 43792 97.6592 294.0908 0012357 219.7270 140.3047 14.95763970146633 CSIM 1 43793U 18099AM 21224.50707898 .00000040 00000-0 85800-5 0 9998 2 43793 97.6630 294.6336 0012100 214.3145 145.7296 14.96689545146659 Astrocast 0.1 1 43798U 18099AS 21224.46272364 .00000423 00000-0 42527-4 0 9996 2 43798 97.6631 294.7766 0011947 200.1937 159.8814 14.96249900146898 JO-97 1 43803U 18099AX 21224.45451898 .00000243 00000-0 26825-4 0 9996 2 43803 97.6597 293.8607 0014239 218.7959 141.2241 14.95926057146866 Suomi 100 1 43804U 18099AY 21224.46116330 .00000467 00000-0 46842-4 0 9996 2 43804 97.6592 293.8290 0014297 218.5808 141.4393 14.95894143146876 Al Farabi 2 1 43805U 18099AZ 21224.58749426 .00000078 00000-0 12029-4 0 9996 2 43805 97.6611 294.2037 0014317 218.6615 141.3586 14.96126607146904 CHOMPTT 1 43855U 18104G 21224.52526155 .00001152 00000-0 45537-4 0 9998 2 43855 85.0344 256.3329 0014861 304.0892 55.8940 15.24159033147632 ISAT 1 43879U 18111D 21224.55498044 .00000604 00000-0 57935-4 0 9996 2 43879 97.6797 130.8128 0011431 275.8666 84.1276 14.96700935141447 UWE-4 1 43880U 18111E 21224.46735069 .00000210 00000-0 23298-4 0 9997 2 43880 97.6815 131.2359 0010857 277.8316 82.1673 14.96933133143467 Sparrow 1 43881U 18111F 21224.50276959 .00000610 00000-0 57978-4 0 9997 2 43881 97.6835 131.4135 0010542 275.8974 84.1046 14.96999538143471 Lume 1 1 43908U 18111AJ 21224.44716880 .00001414 00000-0 56643-4 0 9993 2 43908 97.2264 117.3559 0022181 92.5125 267.8654 15.26436786146215 FO-98 1 43933U 19003B 21224.36804546 .00009559 00000-0 34773-3 0 9997 2 43933 97.1792 263.7229 0015769 186.5069 173.5969 15.28326283142640 FO-99 1 43937U 19003F 21224.39146067 .00001706 00000-0 68598-4 0 9990 2 43937 97.1724 265.3275 0023351 169.6633 190.5091 15.25995909142798 MYSat 1 1 44045U 18092F 21224.52897065 .00004365 00000-0 11544-3 0 9996 2 44045 51.6375 152.4184 0010752 53.0727 307.1241 15.40541577140103 AstroCast 0.2 1 44083U 19018F 21224.16660091 .00001428 00000-0 63981-4 0 9994 2 44083 97.3689 284.1988 0014093 132.1118 228.1319 15.22787143131378 AISTechSat 3 1 44103U 19018AB 21224.46660049 .00001281 00000-0 55280-4 0 9993 2 44103 97.3558 284.9060 0014139 140.9645 276.8335 15.24237744131544 AISat 1 1 44104U 19018AC 21224.18171741 .00001457 00000-0 47086-4 0 9999 2 44104 97.4235 301.5999 0057126 155.4803 204.9175 15.32245848132206 Raavana-1 1 44329U 98067QE 21224.40818008 .00084825 00000-0 33721-3 0 9998 2 44329 51.6339 354.6176 0001887 308.1099 51.9735 15.85941072123016 Uguisu 1 44330U 98067QF 21224.37062684 .00079875 00000-0 33506-3 0 9997 2 44330 51.6291 355.7463 0001266 307.8732 52.2157 15.84849114122976 NepaliSat-1 1 44331U 98067QG 21224.40896434 .00084334 00000-0 33866-3 0 9995 2 44331 51.6310 354.5107 0001787 309.2078 50.8767 15.85734692123009 Prox-1 1 44339U 19036A 21224.59159678 .00000855 00000-0 15084-3 0 9992 2 44339 24.0012 340.6199 0011191 72.0827 288.0884 14.53674901113345 Oculus-ASR 1 44348U 19036K 21224.41249076 .00012594 00000-0 16458-3 0 9994 2 44348 28.5107 121.0573 0323188 153.3423 208.4182 15.13954242117395 Armadillo 1 44352U 19036P 21223.95743013 .00018536 00000-0 22338-3 0 9993 2 44352 28.5277 98.4070 0288247 188.2707 171.3062 15.22639484117534 NO-104 1 44354U 19036R 21224.38347154 .00012637 00000-0 16099-3 0 9992 2 44354 28.5268 113.6122 0317782 163.2755 197.8593 15.15543522117460 NO-103 1 44355U 19036S 21224.55909684 .00018987 -63285-5 17705-3 0 9993 2 44355 28.5287 57.5323 0247273 254.8083 102.5045 15.33956404118046 CP9 1 44360U 19036X 21224.58551788 .00070902 -51573-5 36834-3 0 9996 2 44360 28.5001 335.5314 0151463 30.9297 330.0129 15.64405317118722 Move-IIb 1 44398U 19038N 21224.62917201 .00001826 00000-0 10388-3 0 9998 2 44398 97.5871 188.4039 0025807 114.2183 246.1763 15.13875968116260 SONATE 1 44400U 19038Q 21224.61116259 .00000875 00000-0 53498-4 0 9998 2 44400 97.5943 188.2134 0026320 114.6852 245.7115 15.12646308116221 BeeSat 9 1 44412U 19038AC 21224.47359507 .00001041 00000-0 61643-4 0 9997 2 44412 97.5921 188.3949 0023586 118.8865 241.4736 15.13439076115927 JAISAT-1 1 44419U 19038F 21224.42543220 .00001085 00000-0 63270-4 0 9992 2 44419 97.5923 188.9384 0022469 117.0995 243.2532 15.13924231116263 LightSail-2 1 44420U 19036AC 21223.46219802 .00005064 00000-0 98571-3 0 9993 2 44420 24.0050 323.4524 0015937 63.8047 296.4083 14.60091326111549 Taurus 1 1 44530U 19059C 21224.56386248 .00000492 00000-0 15030-3 0 9990 2 44530 98.5534 315.3895 0012660 338.5954 21.4705 14.46137448101191 Duchifat 3 1 44854U 19089C 21224.46015057 .00000501 00000-0 46285-4 0 9996 2 44854 36.9658 129.4046 0008882 240.0933 119.8945 14.99570117 91514 OPS-SAT 1 44878U 19092F 21224.46988870 .00000895 00000-0 49081-4 0 9991 2 44878 97.4767 47.1551 0013135 342.2423 17.8349 15.16674609 91321 TO-108 1 44881U 19093C 21224.52719282 .00000077 00000-0 16540-4 0 9998 2 44881 97.9232 302.7417 0016396 108.9759 251.3238 14.81470276 89031 FloripaSat 1 1 44885U 19093G 21224.58309008 .00000301 00000-0 44272-4 0 9992 2 44885 97.9258 303.4676 0015930 116.4592 243.8261 14.82346448 89081 RS-44 1 44909U 19096E 21224.60538679 .00000010 00000-0 21863-5 0 9992 2 44909 82.5180 75.5005 0216843 322.0770 36.5224 12.79710812 76002 SwampSat-2 1 45115U 19071E 21224.36444745 .00058682 00000-0 69688-3 0 9991 2 45115 51.6328 95.9454 0007002 161.7228 198.4018 15.60572978 86156 HO-107 1 45119U 19071J 21224.56548068 .00001997 00000-0 66598-4 0 9995 2 45119 51.6417 124.7332 0011738 130.7858 229.4145 15.36178621 85796 Phoenix 1 45258U 98067RB 21224.51937014 .00008527 00000-0 11894-3 0 9993 2 45258 51.6394 48.1275 0005572 104.8282 255.3328 15.57793832 83947 AztechSat-1 1 45261U 98067RE 21224.58932294 .00031991 00000-0 27153-3 0 9995 2 45261 51.6355 32.7893 0004071 136.3794 223.7525 15.69338310 84188 QARMAN 1 45263U 98067RG 21224.53614191 .00020087 00000-0 21160-3 0 9991 2 45263 51.6382 39.9853 0005032 124.0136 236.1337 15.64247421 84116 Quetzal 1 1 45598U 98067RL 21224.52804095 .00016267 00000-0 18896-3 0 9992 2 45598 51.6394 45.2143 0001793 201.8526 158.2392 15.61906138 73318 BY70-2 1 45857U 20042B 21224.59899291 .00001140 00000-0 16823-3 0 9999 2 45857 97.9834 299.7653 0011727 41.0540 319.1560 14.77183466 59831 UPMSat 2 1 46276U 20061E 21224.17324483 .00000553 00000-0 31709-4 0 9994 2 46276 97.4295 296.8269 0002430 127.4594 232.6860 15.16556202 51989 AmicalSat 1 46287U 20061R 21224.48362541 .00000831 00000-0 54126-4 0 9994 2 46287 97.4848 296.5185 0001115 249.2895 110.8215 15.10588853 51808 SALSAT 1 46495U 20068K 21224.63226254 .00001005 00000-0 78096-4 0 9995 2 46495 97.6949 161.8005 0015742 240.1521 119.8141 15.03519354 47775 BY70-3 1 46839U 20079N 21224.55469615 .00003107 00000-0 96513-4 0 9999 2 46839 97.2375 297.3028 0007349 19.1758 92.4091 15.34079298 42807 SPOC 1 46921U 98067RR 21224.56544177 .00007558 00000-0 11556-3 0 9998 2 46921 51.6414 55.9907 0001365 285.3708 74.7133 15.55473149 43598 Bobcat-1 1 46922U 98067RS 21224.57356700 .00011609 00000-0 15990-3 0 9991 2 46922 51.6424 53.8213 0001169 289.2227 70.8638 15.57725213 43588 Neutron-1 1 46923U 98067RT 21224.52135160 .00007449 00000-0 11454-3 0 9990 2 46923 51.6417 56.4431 0001310 305.9943 54.0927 15.55343917 43615 CAPE 3 1 47309U 21002A 21224.32893744 .00001189 00000-0 64174-4 0 9994 2 47309 60.6854 83.0312 0046686 78.7514 281.8814 15.20980164 31386 AO-109 1 47311U 21002C 21224.60153910 .00001484 00000-0 75447-4 0 9995 2 47311 60.6861 80.9800 0042125 77.1937 283.3852 15.21847175 31419 MiTEE 1 1 47314U 21002F 21224.15669916 .00002357 00000-0 10765-3 0 9997 2 47314 60.6838 81.0233 0041146 69.2616 291.2873 15.23449635 31395 ExoCube 2 1 47319U 21002L 21224.58575159 .00000860 00000-0 49352-4 0 9996 2 47319 60.6848 81.4497 0042910 78.7973 281.7933 15.21473433 31378 UVSQ-SAT 1 47438U 21006AB 21224.12643523 .00000795 00000-0 48326-4 0 9990 2 47438 97.4835 284.3463 0011057 265.0135 94.9834 15.13266541 30475 YUSAT 1 1 47439U 21006AC 21224.12861759 .00000922 00000-0 55412-4 0 9990 2 47439 97.4839 284.3487 0010907 265.2316 94.7670 15.13278529 30477 SOMP 2b 1 47445U 21006AJ 21224.47743180 .00000714 00000-0 43960-4 0 9996 2 47445 97.4807 284.5693 0010690 267.9926 92.0081 15.13101714 30529 IDEASSat 1 47458U 21006AX 21224.42926283 .00000744 00000-0 45853-4 0 9998 2 47458 97.4897 284.7231 0009812 265.7647 94.2463 15.12964396 30511 RSP-01 1 47925U 98067SB 21224.57552956 .00007803 00000-0 13136-3 0 9997 2 47925 51.6423 61.2894 0001718 230.4024 129.6815 15.52728385 23498 TAUSAT-1 1 47926U 98067SC 21224.58722403 .00008763 00000-0 14243-3 0 9991 2 47926 51.6413 60.6144 0002801 235.3331 124.7396 15.53539121 23497 Tsuru 1 47927U 98067SD 21224.58780827 .00006646 00000-0 11411-3 0 9998 2 47927 51.6424 61.3709 0001758 229.0369 131.0469 15.52453388 23497 STARS-EC 1 47928U 98067SE 21224.24996491 .00010181 00000-0 16685-3 0 9995 2 47928 51.6418 62.8572 0004673 319.1331 40.9308 15.53099108 23424 Maya-2 1 47929U 98067SF 21224.58480346 .00006731 00000-0 11536-3 0 9996 2 47929 51.6423 61.3507 0001866 225.2304 134.8534 15.52480103 23456 OPUSAT-II 1 47930U 98067SG 21224.54127707 .00011332 00000-0 18172-3 0 9999 2 47930 51.6423 61.0626 0001930 218.7193 141.3659 15.53577938 23491 GuaraniSat-1 1 47931U 98067SH 21224.26162207 .00007007 00000-0 11974-3 0 9990 2 47931 51.6426 62.9443 0001914 223.9288 136.1550 15.52492143 23447 CubeSX-Sirius-HSE 1 47951U 21022V 21224.53301828 .00001325 00000-0 95258-4 0 9998 2 47951 97.5535 125.5530 0023122 117.7322 242.6243 15.05750498 21499 CubeSX-HSE 1 47952U 21022W 21224.59577483 .00001299 00000-0 93385-4 0 9996 2 47952 97.5534 125.6192 0023370 118.1551 242.2039 15.05791851 21507 KSU-Cubesat 1 47954U 21022Y 21224.52191886 .00000514 00000-0 39440-4 0 9991 2 47954 97.5540 125.5725 0023134 117.6078 242.7502 15.05874912 21211 GRBAlpha 1 47959U 21022AD 21224.59601707 .00001324 00000-0 95075-4 0 9997 2 47959 97.5546 125.6312 0023136 118.2709 242.0852 15.05791447 20328 Orbicraft-Zorkiy 1 47960U 21022AE 21224.52325814 .00001084 00000-0 78516-4 0 9998 2 47960 97.5568 125.5982 0022867 118.2363 242.1164 15.05860890 21004 STECCO 1 47962U 21022AG 21224.58111292 .00000463 00000-0 35056-4 0 9991 2 47962 97.5518 125.8116 0018329 112.8622 5.8005 15.06924209 20327 DO-111 1 47963U 21022AH 21224.52093980 .00001636 00000-0 11139-3 0 9997 2 47963 97.5530 125.8577 0021295 110.5542 249.7974 15.07508905 20343 MO-110 1 47964U 21022AJ 21224.46814340 .00001235 00000-0 85774-4 0 9994 2 47964 97.5523 125.7683 0021320 111.8658 248.4840 15.07198859 20312 FEES 1 48082U 21022AL 21224.51158533 .00000835 00000-0 60049-4 0 9990 2 48082 97.5534 125.7324 0017694 108.0563 252.2594 15.06782198 20021 RamSat 1 48850U 98067SL 21224.56309464 .00005102 00000-0 96052-4 0 9997 2 48850 51.6422 63.4328 0003929 355.5395 4.5559 15.50379700 9218 MO-112 1 48868U 98067SP 21224.56337501 .00010670 00000-0 18919-3 0 9990 2 48868 51.6420 63.4355 0002250 353.7019 6.3942 15.50816820 7992 TUBIN 1 48900U 21059X 21224.54670463 .00000847 00000-0 52691-4 0 9990 2 48900 97.5154 352.6438 0012117 88.5280 336.3777 15.12220953 7214 /EX
